INTELSAT 20 (IS-20)

Last updated on Jan. 27, 2020, 4:38 a.m. UTC

1 38740U 12043A   20026.25535581 -.00000031  00000-0  00000-0 0  9991
2 38740   0.0192  97.4131 0003047  85.5043 102.4986  1.00270821 27347
UTC
Height (km)
Latitude
Longitude
Inclination
Orbital Period
UTC large
Height (km)
Speed (km/s)
/
Latitude / Longitude
Inclination (degrees)
Orbital Period (minutes)
Azimuth
Elevation
Range (km)
Doppler Factor
iOS Compass Heading
iOS Angle

Next 30 passes for location: Hong Kong

Rise time Rise Azimuth (degrees) Set time Set Azimuth (degrees) Duration Max altitude (degrees)

No matching passes for this satellites